This demonstration page uses our WeatherBlox Daily Observations layout. Learn more.

Left ArrowRight Arrow

Hourly Observations for June 12, 2017

Temp ( °F °C ) Dew Point ( °F °C ) Humidity (%) Winds ( mph kmh ) Pressure ( in mb ) Visibility ( mi km ) Precip ( " mm )
12:52 am 00:52 Clear 73 22.8 64 17.8 74 74 SSE 13 20 29.91 1013 10 16 0.00 0.00
1:52 am 01:52 Clear 72 22.2 64 17.8 76 76 SSE 12 19 29.91 1013 10 16 0.00 0.00
2:52 am 02:52 Clear 71 21.7 64 17.8 79 79 SSE 12 19 29.91 1013 10 16 0.00 0.00
3:52 am 03:52 Clear 70 21.1 64 17.8 82 82 SSE 13 20 29.91 1013 10 16 0.00 0.00
4:52 am 04:52 Clear 70 21.1 65 18.3 84 84 SSE 10 17 29.92 1013 10 16 0.00 0.00
5:52 am 05:52 Clear 70 21.1 66 18.9 87 87 SSE 9 15 29.94 1014 10 16 0.00 0.00
6:52 am 06:52 Sunny 71 21.7 68 20 90 90 SSE 10 17 29.96 1015 10 16 0.00 0.00
7:52 am 07:52 Sunny 75 23.9 69 20.6 82 82 SSE 14 22 29.97 1015 10 16 0.00 0.00
8:52 am 08:52 Sunny 79 26.1 70 21.1 74 74 S 16 26 29.98 1015 10 16 0.00 0.00
9:52 am 09:52 Sunny 81 27.2 70 21.1 69 69 S 16 26 29.97 1015 10 16 0.00 0.00
10:52 am 10:52 Sunny 84 28.9 71 21.7 65 65 SSW 14 22 29.97 1015 10 16 0.00 0.00
11:52 am 11:52 Mostly Cloudy 84 28.9 71 21.7 65 65 S 10 17 29.97 1015 10 16 0.00 0.00
12:52 pm 12:52 Partly Cloudy 87 30.6 69 20.6 55 55 S 15 24 29.96 1014 10 16 0.00 0.00
1:52 pm 13:52 Partly Cloudy 89 31.7 70 21.1 53 53 S 13 20 29.93 1014 10 16 0.00 0.00
2:52 pm 14:52 Sunny 89 31.7 69 20.6 52 52 S 14 22 29.91 1013 10 16 0.00 0.00
3:52 pm 15:52 Partly Cloudy 89 31.7 69 20.6 52 52 S 14 22 29.90 1013 10 16 0.00 0.00
4:52 pm 16:52 Mostly Cloudy 87 30.6 69 20.6 55 55 S 17 28 29.89 1012 10 16 0.00 0.00
5:52 pm 17:52 Sunny 87 30.6 69 20.6 55 55 S 14 22 29.88 1012 10 16 0.00 0.00
6:52 pm 18:52 Mostly Sunny 84 28.9 71 21.7 65 65 SSE 13 20 29.88 1012 10 16 0.00 0.00
7:52 pm 19:52 Mostly Sunny 83 28.3 71 21.7 67 67 SSE 13 20 29.88 1012 10 16 0.00 0.00
8:52 pm 20:52 Clear 81 27.2 70 21.1 69 69 SSE 13 20 29.88 1012 10 16 0.00 0.00
9:52 pm 21:52 Clear 80 26.7 70 21.1 71 71 SSE 13 20 29.90 1012 10 16 0.00 0.00
10:52 pm 22:52 Clear 78 25.6 71 21.7 79 79 SSE 14 22 29.91 1013 10 16 0.00 0.00
11:52 pm 23:52 Clear 77 25 71 21.7 82 82 SSE 13 20 29.91 1013 10 16 0.00 0.00

Powered by AerisWeather